www.pogodaiklimat.ru

Погода и климат >> Архив погоды >> Россия >> Краснодарский край >> Сочи


АРХИВ ПОГОДЫ в Сочи

Время (UTC), дата Ветер
(напр.,м/с)
 
Видим.   Явления Облачность Т
(С)
Тd
(С)
f
(%)
Тe
(С)
Тes
(С)
Комфортность P
(гПа)
Po
(гПа)
Тmin
(С)
Tmax
(С)
R
(мм)
R24
(мм)
S
(см)
06 9.01 СЗ 4 17 км слаб. ливневой дождь 10/10 600 м
[Cb cap]
+2.7 +2.7 100 -2 -2 холодно 1009.5 993.2 +2.2
09 9.01 СЗ 8-13
{13}
20 км {ливн. осадки} 10/3 1000 м
[Cu hum Ac As]
+3.9 -2.3 64 -2 -2 очень
холодно
1013.6 997.3
12 9.01 С 2
{14}
20 км {ливн. осадки} 9/0
[Ac cast Cs]
+4.3 -4.4 53 +2 +3 холодно 1017.2 1000.9
15 9.01 штиль 0 20 км 4/1 1000 м
[Cu Sc Ci fib]
+3.1 -4.6 57 +3 +3 прохладно 1019.8 1003.4 +5.5 5
18 9.01 В 2 20 км 3/0
[Ac trans]
+1.0 -3.3 73 -2 -2 холодно 1022.0 1005.4
21 9.01 В 3 20 км 6/0
[Ac trans]
+1.2 -2.9 74 -3 -3 холодно 1022.6 1006.0
00 10.01 В 4 20 км 8/8 1000 м
[Sc]
+1.7 -3.2 70 -3 -3 холодно 1023.8 1007.2
03 10.01 В 4 20 км ясно +1.5 -4.4 65 -3 -3 холодно 1022.9 1006.3 +0.5
06 10.01 В 3 20 км 10/1 600 м
[Sc Ci fib]
+2.8 -4.9 57 -1 -0 холодно 1023.2 1006.7
09 10.01 ЮВ 4 20 км 10/0
[Cc]
+8.3 -3.2 44 +6 +8 по сезону 1022.0 1005.8
12 10.01 ЮВ 4 20 км 10/0
[Ac As Cc]
+8.1 +0.3 58 +5 +6 по сезону 1020.6 1004.5
15 10.01 В 5 20 км 10/10 1000 м
[Sc]
+7.7 -2.6 48 +4 +4 по сезону 1020.7 1004.5 +10.1
18 10.01 В 5 20 км 10/10 1000 м
[Sc]
+9.2 -5.8 34 +7 +7 по сезону 1020.2 1004.1
21 10.01 В 5 20 км 10/10 1000 м
[Sc]
+9.5 -7.2 30 +7 +7 по сезону 1020.4 1004.3
00 11.01 В 4 20 км 10/10 1000 м
[Sc]
+9.6 -5.9 33 +8 +8 тепло 1020.6 1004.5
03 11.01 ЮВ 3 20 км 10/10 1000 м
[Sc]
+9.8 -4.2 37 +8 +8 тепло 1020.0 1003.9 +7.6
06 11.01 В 4 20 км 10/0
[Ac trans Cs]
+9.9 -4.1 37 +8 +8 тепло 1020.5 1004.4
09 11.01 В 5 20 км 10/0
[Ac trans Cs]
+12.3 -2.3 36 +10 +12 тепло 1019.3 1003.4
12 11.01 ЮВ 6-10
{10}
20 км 10/0
[Cs]
+12.1 -2.1 37 +10 +10 тепло 1017.4 1001.5
15 11.01 В 3
{10}
20 км 9/0
[Ac und]
+10.9 -0.9 44 +9 +9 тепло 1017.8 1001.9 +12.8
18 11.01 В 6
{10}
20 км 10/8 1000 м
[Sc Ac As]
+13.0 -5.1 28 +11 +11 тепло 1016.6 1000.8
21 11.01 В 4 20 км 10/8 1000 м
[Sc Ac As]
+12.4 -2.3 36 +11 +11 тепло 1015.3 999.5
00 12.01 В 4 20 км 10/6 1000 м
[Cb cap Ac As]
+11.6 +1.3 49 +10 +10 тепло 1015.0 999.1
03 12.01 ЮВ 2 19 км слаб. ливневой дождь 10/10 1000 м
[Cb cap]
+9.5 +6.2 80 +8 +8 тепло 1015.4 999.4 +9.3 0.1
06 12.01 В 4 9000 м слаб. ливневой дождь 10/10 300 м
[Cb cap]
+6.1 +6.1 100 +2 +2 по сезону 1016.4 1000.2 +5.9
09 12.01 СЗ 2 5000 м слаб. ливневой дождь 10/10 200 м
[Cb cap]
+6.7 +6.7 100 +4 +4 по сезону 1015.6 999.5
12 12.01 З 1 5000 м слаб. ливневой дождь 10/10 300 м
[Cb cap]
+6.0 +6.0 100 +5 +5 по сезону 1014.6 998.4
15 12.01 В 3 18 км слаб. ливневой дождь 10/10 300 м
[Cb cap]
+6.1 +6.1 100 +3 +3 прохладно 1013.6 997.5 +9.8 35
18 12.01 В 4 20 км слаб. ливневой дождь 10/10 600 м
[Cb cap]
+5.3 +5.3 100 +1 +1 прохладно 1012.0 995.8
21 12.01 В 4 20 км {ливн. осадки} 10/10 1000 м
[Sc]
+7.1 +3.7 79 +4 +4 по сезону 1008.7 992.7
00 13.01 В 3 20 км слаб. ливневой дождь 10/10 600 м
[Cb cap]
+8.5 +4.1 74 +6 +6 по сезону 1008.4 992.5
03 13.01 ЮЗ 6 20 км слаб. ливневой дождь 10/10 600 м
[Cb cap]
+7.4 +6.8 96 +3 +3 по сезону 1008.3 992.3 +5.2 4
06 13.01 В 3
{11}
5000 м ливневой дождь 10/10 300 м
[Cb cap]
+6.3 +6.3 100 +3 +3 по сезону 1008.8 992.8
09 13.01 В 4 10 км ливневой дождь 10/10 300 м
[Cb cap]
+5.9 +5.9 100 +2 +2 прохладно 1008.8 992.7
12 13.01 З 5
{11}
15 км слаб. ливневой дождь 10/10 300 м
[Cb cap]
+5.6 +5.6 100 +1 +1 холодно 1009.1 993.0
15 13.01 В 1 6000 м ливневой дождь 10/10 300 м
[Cb cap]
+4.0 +4.0 100 +2 +2 прохладно 1009.3 993.1 +7.4 37
18 13.01 В 2 4000 м ливневой дождь 10/10 300 м
[Cb cap]
+4.7 +4.7 100 +2 +2 по сезону 1008.9 992.8
21 13.01 ЮВ 1 5000 м слаб. ливневой дождь 10/10 300 м
[Cb cap]
+5.2 +5.2 100 +4 +4 по сезону 1008.6 992.5
00 14.01 В 1 10 км ливневой дождь 10/10 300 м
[Cb cap]
+5.1 +5.1 100 +4 +4 по сезону 1008.0 991.9
03 14.01 В 3 12 км слаб. ливневой дождь 10/10 300 м
[Cb cap]
+5.1 +5.1 100 +1 +1 по сезону 1006.8 990.7 +3.9 15
06 14.01 В 4 20 км слаб. ливневой дождь 10/10 1000 м
[Cb cap]
+5.9 +4.7 92 +2 +2 по сезону 1006.5 990.5
09 14.01 В 3 20 км {ливн. осадки} 10/3 1000 м
[Sc Ac As]
+8.8 +3.2 68 +7 +7 по сезону 1005.7 989.8
12 14.01 В 4 20 км {ливн. осадки} 10/3 1000 м
[Sc Ac As]
+10.1 +2.5 59 +8 +8 по сезону 1004.8 989.0
15 14.01 ЮВ 5 20 км 10/0
[Ac und]
+10.1 +1.0 53 +7 +7 по сезону 1005.1 989.3 +10.7 0.6
18 14.01 ЮВ 3 20 км в посл. час ливневой дождь 10/10 1000 м
[Cb cap]
+10.7 +2.0 55 +9 +9 тепло 1005.7 989.9
21 14.01 В 4 20 км 10/10 1000 м
[Cb cap]
+10.9 -1.5 42 +9 +9 тепло 1004.7 989.0
00 15.01 ЮВ 5
{13}
20 км 10/10 1000 м
[Cb cap]
+11.6 +0.7 47 +9 +9 тепло 1006.1 990.4
03 15.01 В 6
{10}
20 км слаб. ливневой дождь 10/10 1000 м
[Cb cap]
+7.8 +3.8 76 +4 +4 по сезону 1006.6 990.7 +7.5 0.1
06 15.01 В 7-10
{12}
20 км {ливн. осадки} 10/4 1000 м
[Cb cap Ac cast Ci fib]
+9.5 +2.8 63 +6 +6 по сезону 1007.0 991.2
09 15.01 В 5
{13}
20 км 10/8 1000 м
[Sc Ac trans Ci fib]
+10.8 +2.4 56 +8 +8 по сезону 1005.7 989.9
12 15.01 В 4
{10}
20 км 10/6 1000 м
[Sc Ac trans Ci fib]
+12.2 +1.8 49 +11 +11 тепло 1003.2 987.6
15 15.01 В 5
{12}
20 км 10/8 1000 м
[Sc Ac trans Ci fib]
+13.5 +0.2 40 +12 +12 тепло 1001.0 985.5 +14.0
18 15.01 ЮВ 10-16
{17}
20 км слаб. ливневой дождь 10/10 600 м
[Cb cap]
+12.5 +4.2 57 +9 +9 тепло 999.9 984.3
21 15.01 В 5
{16}
20 км {ливн. осадки} 10/10 600 м
[Cb cap]
+12.4 +3.4 54 +10 +10 тепло 996.8 981.3
00 16.01 ЮВ 5
{18}
20 км {ливн. осадки} 10/10 600 м
[Cb cap]
+15.3 +2.5 42 +14 +14 тепло 998.4 983.0
03 16.01 ЮВ 5-10
{11}
20 км 10/10 600 м
[Cb cap]
+13.2 +5.1 58 +11 +11 тепло 998.1 982.6 +9.3 1

 

Местоположение метеостанции Сочи (Краснодарский край, Россия): широта 43.58 долгота 39.77 высота над уровнем моря 132 м.

В архиве по умолчанию представлена погода в Сочи за последнюю неделю. Архивные данные за месяц целиком и за предыдущие месяцы, начиная с января 2011 года, Вы можете получить, выбрав интересующий диапазон дат из раскрывающегося списка и нажав кнопку "Ввод!".


*Определитесь, кто Вы:
робот инопланетянин человек

Внимание! Время в таблицах - всемирное. Для получения местного времени необходимо прибавить поправку, которая равна 3 ч.

Смотрите также архив погоды в соседних городах и на ближайших метеорологических станциях:

Погода в Сочи аэропорт (Адлере) (Краснодарский край, Россия) (20 км)
Погода в Кепше (Краснодарский край, Россия) (23 км)
Погода в Имеретинке (Краснодарский край, Россия) (25 км)
Погода в Солох Ауле (Краснодарский край, Россия) (27 км)
Погода в Кичмае (Краснодарский край, Россия) (35 км)
Погода в Красной Поляне (Краснодарский край, Россия) (36 км)
Погода в Горная Карусель 1500 (Краснодарский край, Россия) (43 км)
Погода в Горная Карусель 1000 (Краснодарский край, Россия) (43 км)
Погода на Кордоне Лаура (Краснодарский край, Россия) (45 км)
Погода в Лазаревском (Краснодарский край, Россия) (50 км)

Пояснения к столбцам:

Ветер - указаны скорость ветра в м/с - средняя за 10 мин, порывы в срок и между сроками (в фигурных скобках) и направление, откуда дует ветер: С - северный, СВ - северо-восточный, В - восточный, ЮВ - юго-восточный, Ю - южный, ЮЗ - юго-западный, З - западный, СЗ - северо-западный.
Видимость - горизонтальная дальность видимости в метрах или километрах. При видимости от 1 до 10 км при отсутствии осадков обычно наблюдается дымка, при ухудшении видимости до 1 км и менее - туман. В сухую погоду видимость может ухудшаться дымом, пылью или мглою.
Явления - указаны атмосферные явления, наблюдавшиеся в срок или в последний час перед сроком; фигурными скобками обозначены явления, наблюдавшиеся между сроками (за 1-3 часа до срока); квадратными скобками обозначены град или гололедные отложения с указанием их диаметра в мм.
Облачность - указаны через наклонную черту общая и нижняя облачность в баллах и высота нижней границы облаков в метрах; квадратными скобками обозначены формы облаков: Ci - перистые, Cs - перисто-слоистые, Cc - перисто-кучевые, Ac - высококучевые, As - высокослоистые, Sc - слоисто-кучевые, Ns - слоисто-дождевые, Cu - кучевые, Cb - кучево-дождевые. Подробнее классификацию облаков см. в Атласе облаков (PDF).
T - Температура воздуха - температура, измеренная на высоте 2 м над землей.
Td - Температура точки росы - температура, при понижении до которой содержащийся в воздухе водяной пар достигнет насыщения.
f - Относительная влажность воздуха - влажноcть воздуха, измеренная на высоте 2 м над землей.
Te - Эффективная температура - температура, которую ощущает одетый по сезону человек в тени. Характеристика душности погоды. При расчете учитывается влияние влажности воздуха и скорости ветра на теплоощущения человека.
Tes - Эффективная температура на солнце - температура, которую ощущает человек, с поправкой на солнечный нагрев. Характеристика знойности погоды. Зависит от высоты солнца над горизонтом, облачности и скорости ветра. Ночью, в пасмурную погоду, а также при ветре 12 м/с и более поправка равна нулю.
P - Атмосферное давление - приведенное к уровню моря атмосферное давление.
Po - Атмосферное давление - измеренное на уровне метеостанции атмосферное давление.
Tmin - Минимальная температура - минимум температуры воздуха на высоте 2 м над землей.
Tmax - Максимальная температура - максимум температуры воздуха на высоте 2 м над землей.
R - Количество осадков - Количество выпавших осадков за период времени, мм. При наведении курсора мыши на число - период времени, за который выпало указанное количество осадков.
R24 - Количество осадков - Количество выпавших осадков за 24 часа, мм.
S - Снежный покров - Высота снежного покрова, см. При наведении курсора мыши на число - состояние снежного покрова и степень покрытия местности в баллах.